Location: D�rnast
(49.6426°N, 11.9755°E)
Time: 02:56:45
(UTC+00:00)

BlueWalker 3 - Pass Details

Date: 04 December 2022
Orbit: 499 x 517 km, 53.2° (Epoch: 26 January)

Event Time Altitude Azimuth Distance (km) Brightness Sun altitude
Rises 16:52:59 0° 284° (WNW) 2,634 6.7 -15.3°
Reaches altitude 10° 16:55:14 10° 290° (WNW) 1,742 5.5 -15.7°
Maximum altitude 16:59:05 51° 7° (N) 648 2.3 -16.3°
Enters shadow 17:00:23 35° 62° (ENE) 842 2.5 -16.5°
